Probability
0 0 1 1 1 0 0 0 0 0 0 0 0 0 0 0 0 0 0 1 2 4 5 4 3 3 3 3 3 3 3 1 0 0 0 0 0 0 0 0 0 0 0 0 0 0 0 0 0
0 0 0 0 0 0 0 0 0 0 0 0 0 0 0 0 0 0 0 0 2 5 5 3 3 3 3 3 3 3 3 2 1 0 0 0 0 0 0 0 0 0 0 0 0 0 0 0 0
0 0 0 0 0 0 0 0 0 0 0 0 0 0 0 1 1 1 0 1 3 6 6 5 4 3 3 3 3 2 2 2 1 0 0 0 0 0 0 0 0 0 0 0 0 0 0 0 0
0 0 0 0 0 0 0 0 0 0 0 0 0 0 1 2 2 2 1 1 4 6 8 6 4 3 3 3 2 2 1 1 1 0 0 0 0 0 0 0 0 0 0 0 0 0 0 0 0
0 0 0 0 0 0 0 0 0 0 0 0 0 1 2 3 3 2 1 2 5 7 9 7 5 4 4 3 2 1 0 0 0 0 0 0 0 0 0 0 0 0 0 0 0 0 0 0 0
1 0 0 0 0 0 0 0 0 0 0 0 0 1 2 3 3 2 2 3 5 7 8 7 5 4 4 3 2 1 0 0 0 0 0 0 0 0 0 0 0 0 0 0 0 0 0 0 0
1 0 0 0 0 0 0 0 0 0 0 0 0 1 2 3 4 4 3 4 5 7 7 6 5 4 4 3 2 1 0 0 0 0 0 0 0 0 0 0 0 0 0 0 0 0 0 0 0
1 0 0 0 0 0 0 0 0 0 0 0 0 1 1 2 4 5 4 3 5 6 6 5 3 3 3 2 1 1 0 0 0 0 0 0 0 0 0 0 0 0 0 0 0 0 0 0 0
0 0 0 0 0 0 0 0 0 0 0 0 0 0 0 1 2 4 4 3 4 5 5 3 2 3 3 1 0 0 0 0 0 0 0 0 0 0 0 0 0 0 0 0 0 0 0 0 0
0 0 0 0 0 0 0 0 0 0 0 0 0 0 0 0 0 1 1 1 2 3 3 2 1 2 3 1 0 0 0 0 0 0 0 0 0 0 0 0 0 0 0 0 0 0 0 0 0
0 0 0 0 0 0 0 0 0 0 0 0 0 0 0 0 0 0 0 0 1 1 2 2 2 3 3 2 1 0 0 0 0 0 0 0 0 0 0 0 0 0 0 0 0 0 0 0 0
0 0 0 0 0 0 0 0 0 0 0 0 0 0 0 0 0 0 0 1 1 0 1 1 2 3 3 2 1 0 0 0 0 0 0 0 0 0 0 0 0 0 0 0 0 0 0 0 0
0 0 0 0 0 0 0 0 0 0 0 0 0 0 0 0 0 0 0 1 1 0 0 0 2 3 3 2 1 0 0 0 0 0 0 1 1 0 0 0 0 0 0 0 0 0 0 0 0
0 0 0 0 0 0 0 0 0 0 0 0 0 0 0 0 0 0 0 1 1 0 0 0 2 3 3 2 1 0 0 0 0 0 0 1 2 1 0 0 0 0 0 0 0 0 0 0 0
0 0 0 0 0 0 0 0 0 0 0 0 0 0 0 0 0 0 0 0 0 0 0 0 1 2 3 2 1 0 0 0 0 0 0 1 2 1 0 0 0 0 0 0 0 0 0 0 0
0 0 0 0 0 0 0 0 0 0 0 0 0 0 0 0 0 0 0 0 0 0 0 0 0 1 2 2 1 0 0 0 0 0 0 0 1 1 1 0 0 0 0 0 0 0 0 0 0
0 0 0 0 0 0 0 0 0 0 0 0 0 0 0 0 0 0 0 0 0 0 0 0 0 0 1 1 0 0 0 0 0 0 0 0 1 1 1 0 0 0 0 0 0 0 0 0 0
0 0 0 0 0 0 0 0 0 0 0 0 0 0 0 0 0 0 0 0 0 0 0 0 0 0 0 0 0 0 0 0 0 0 0 0 0 1 1 1 0 0 0 0 0 0 0 0 0
0 0 0 0 0 0 0 0 0 0 0 0 0 0 0 0 0 0 0 0 0 0 0 0 0 0 0 0 0 0 0 0 0 0 0 0 0 0 1 1 0 0 0 0 0 0 0 0 0
0 0 0 0 0 0 0 0 0 0 0 0 0 0 0 0 0 0 0 0 0 0 0 0 0 0 0 0 0 0 0 0 0 0 0 0 0 0 0 0 0 0 0 0 0 0 0 0 0
0 0 0 0 0 0 0 0 0 0 0 0 0 0 0 0 0 0 0 0 0 0 0 0 0 0 0 0 0 0 0 0 0 0 0 0 0 0 0 0 0 0 0 0 0 0 0 0 0
0 0 0 0 0 0 0 0 0 0 0 0 0 0 0 0 0 0 0 0 0 0 0 0 0 0 0 0 0 0 0 0 0 0 0 0 0 0 0 0 0 0 0 0 0 0 0 0 0
0 0 0 0 0 0 0 0 0 0 0 0 0 0 0 0 0 0 0 0 0 0 0 0 0 0 0 0 0 0 0 0 0 0 0 0 0 0 0 0 0 0 0 0 0 0 0 0 0
0 0 0 0 0 0 0 0 0 0 0 0 0 0 0 0 0 0 0 0 0 0 0 0 0 0 0 0 0 0 0 0 0 0 0 0 0 0 0 0 0 0 0 0 0 0 0 0 0
0 0 0 0 0 0 0 0 0 0 0 0 0 0 0 0 0 0 0 0 0 0 0 0 0 0 0 0 0 0 0 0 0 0 0 0 0 0 0 0 0 0 0 0 0 0 0 0 0
0 0 0 0 0 0 0 0 0 0 0 0 0 0 0 0 0 0 0 0 0 0 0 0 0 0 0 0 0 0 0 0 0 0 0 0 0 0 0 0 0 0 0 0 0 0 0 0 0
0 0 0 0 0 0 0 0 0 0 0 0 0 0 0 0 0 0 0 0 0 0 0 0 0 0 0 0 0 0 0 0 0 0 0 0 0 0 0 0 0 0 0 0 0 0 0 0 0
0 0 0 0 0 0 0 0 0 0 0 0 0 0 0 0 0 0 0 0 0 0 0 0 0 0 0 0 0 0 0 0 0 0 0 0 0 0 0 0 0 0 0 0 0 0 0 0 0
0 0 0 0 0 0 0 0 0 0 0 0 0 0 0 0 0 0 0 0 0 0 0 0 0 0 0 0 0 0 0 0 0 0 0 0 0 0 0 0 0 0 0 0 0 0 0 0 0
0 0 0 0 0 0 0 0 0 0 0 0 0 0 0 0 0 0 0 0 0 0 0 0 0 0 0 0 0 0 0 0 0 0 0 0 0 0 0 0 0 0 0 0 0 0 0 0 0
Wind_Speed
16 11 6 3 3 3 4 1 2 3 4 5 6 6 7 7 6 7 3 5 6 6 6 5 7 8 9 9 10 10 11 11 11 11 11 12 12 12 12 11 11 10 11 11 12 12 12 12 12
11 8 4 3 4 4 2 2 3 4 5 4 4 5 6 7 7 6 3 3 5 6 5 5 8 8 9 9 10 10 11 11 11 11 11 11 12 12 12 11 11 11 11 11 11 11 11 11 11
10 6 3 3 3 3 2 2 6 7 6 4 4 5 5 5 5 4 3 3 5 6 6 6 8 9 9 9 9 10 10 10 11 11 11 11 12 12 12 11 11 11 11 11 11 10 11 10 10
5 3 3 2 3 2 2 2 5 5 3 3 5 6 5 6 4 3 2 3 5 6 6 6 8 8 9 9 9 9 9 10 10 10 10 11 11 11 12 11 11 11 11 11 11 10 10 10 10
3 3 3 3 3 2 1 2 3 3 3 2 4 5 5 4 5 4 2 4 5 6 6 6 7 8 9 9 9 9 10 10 10 10 10 10 11 11 11 11 11 10 10 10 10 10 10 10 10
3 2 3 5 4 3 1 0 2 3 2 2 3 4 5 3 4 3 3 4 5 5 5 5 6 7 8 9 9 9 9 10 10 10 10 10 10 10 10 10 10 10 9 9 9 9 9 9 9
2 2 4 4 4 3 2 1 0 2 2 1 1 3 5 3 3 3 3 4 5 5 5 4 4 5 7 8 8 8 8 9 9 9 9 9 9 9 9 9 9 9 9 9 9 9 8 8 8
3 2 3 3 3 1 1 1 3 2 2 2 2 3 4 4 3 3 3 4 5 5 4 3 3 3 3 4 7 7 8 8 8 8 8 7 7 7 8 8 9 9 9 9 9 9 8 7 7
3 1 2 2 1 1 2 2 3 4 3 2 4 5 5 7 5 4 3 3 4 4 3 3 3 3 3 3 5 5 5 6 6 5 5 4 2 3 4 6 8 8 8 8 8 7 7 7 6
3 0 1 4 4 2 1 1 1 2 2 2 4 6 7 6 5 4 3 3 3 3 3 2 2 3 3 3 2 2 2 2 2 2 1 1 2 2 4 5 6 7 7 7 7 7 6 5 3
3 1 2 4 6 4 2 2 1 2 1 2 4 5 5 5 4 4 4 3 3 2 2 2 2 2 2 2 1 1 1 1 1 2 2 2 2 2 2 1 2 3 4 3 4 4 3 3 3
2 3 2 3 5 3 2 2 2 1 1 1 3 5 5 5 4 3 3 4 3 3 2 2 2 3 2 2 1 1 1 1 2 1 1 2 1 2 2 1 1 1 1 2 2 2 3 3 4
2 2 3 3 3 3 2 2 2 2 1 2 4 4 5 5 4 4 3 3 3 3 3 2 2 2 2 1 1 1 1 1 2 2 2 2 2 2 1 1 1 1 1 2 2 2 3 2 3
3 3 1 1 1 1 2 3 2 2 1 2 4 4 4 4 4 4 4 3 3 2 3 2 1 1 2 1 1 1 1 1 1 2 2 2 1 1 1 1 2 2 2 2 2 2 2 2 2
3 3 1 0 0 0 2 4 3 2 3 3 4 5 5 4 4 4 4 4 4 3 2 2 2 1 2 1 1 1 1 2 2 2 3 3 2 1 1 1 1 1 2 2 2 2 2 2 2
3 2 1 1 0 0 1 4 2 2 3 3 4 4 4 4 4 3 4 4 4 4 3 2 1 1 2 1 1 1 1 2 1 1 2 3 3 2 1 1 1 2 2 2 2 2 2 2 2
2 0 1 0 0 1 2 5 2 1 3 4 4 4 4 3 3 3 3 4 4 4 3 2 2 1 1 1 1 1 1 1 1 1 1 2 3 3 2 1 1 2 2 2 2 2 2 2 2
0 1 1 1 1 3 4 6 4 3 3 4 4 3 4 4 3 3 3 4 3 3 3 2 2 1 1 1 1 1 1 1 1 1 1 2 2 3 2 1 1 1 1 1 2 2 2 1 2
2 1 2 2 2 4 5 7 7 4 4 4 4 4 4 4 3 3 3 4 3 3 2 2 2 1 1 1 1 1 1 0 1 1 1 1 2 2 1 1 1 1 1 1 1 1 2 2 2
1 1 2 2 1 3 5 8 6 4 5 4 4 4 4 4 3 3 3 3 3 3 2 2 2 1 1 1 1 1 1 1 1 0 1 1 1 2 1 1 1 1 1 1 1 1 1 1 2
2 1 2 4 5 4 5 6 3 2 3 2 2 3 3 3 3 3 3 3 2 2 2 2 2 2 1 1 1 1 1 0 0 0 1 1 1 1 1 1 1 1 1 1 1 1 1 1 2
1 2 2 3 3 2 2 4 3 2 2 2 3 3 2 2 2 3 3 3 3 3 2 2 2 1 2 2 2 2 1 1 1 0 0 1 1 2 2 1 1 0 0 1 1 1 1 1 2
1 3 4 4 3 3 2 3 4 1 1 2 2 2 1 1 1 2 3 3 2 2 2 2 2 1 1 2 3 3 2 1 1 0 0 1 1 1 2 1 1 1 1 1 1 2 2 1 2
3 4 4 2 1 2 2 2 4 1 2 0 0 1 0 0 0 1 2 2 2 2 2 2 2 2 1 1 2 3 3 2 1 1 1 1 1 1 2 1 1 1 1 1 1 1 2 2 2
2 2 2 2 1 3 0 2 5 1 1 1 1 1 1 1 1 1 1 1 1 2 2 3 3 2 2 2 2 2 3 3 2 2 1 1 1 1 2 1 0 0 1 1 1 1 2 2 2
2 2 1 1 2 3 2 4 4 1 2 2 2 2 2 2 1 1 0 0 1 1 2 2 2 2 2 2 2 2 2 2 2 2 1 2 1 1 1 1 0 1 1 1 1 1 2 2 2
2 1 1 0 1 3 4 3 3 1 1 1 1 1 1 1 1 0 0 0 0 1 2 2 2 2 2 2 2 2 2 2 2 1 1 1 1 1 1 1 0 1 1 1 1 1 1 2 2
1 1 1 0 1 3 5 3 3 2 1 0 1 0 0 1 1 0 0 0 0 1 1 2 2 2 2 2 2 2 2 2 1 1 1 1 1 1 1 1 1 1 1 1 1 1 1 1 2
1 0 1 1 1 2 4 5 1 0 0 1 0 0 0 0 1 1 0 1 1 1 1 1 1 1 1 2 2 2 2 2 2 2 2 1 1 1 2 2 1 1 1 1 1 2 2 2 2
1 1 1 1 2 2 3 7 1 1 1 1 1 1 1 1 1 1 1 0 1 1 1 1 1 1 1 2 2 2 2 2 2 2 2 2 2 2 2 1 1 1 2 2 2 2 2 2 3
Wind_Direction
310 296 276 259 239 233 229 233 86 86 64 48 35 43 51 39 39 94 103 74 79 89 91 74 52 68 74 74 73 73 72 72 71 71 68 66 64 62 61 62 60 59 60 60 58 56 55 51 48
301 297 270 243 238 235 217 173 114 70 86 88 53 51 66 65 62 87 71 61 82 93 95 82 59 67 74 75 73 72 74 72 70 69 67 65 62 60 60 60 58 58 59 59 57 56 53 49 46
284 268 270 251 242 252 234 106 99 89 84 97 86 41 46 60 70 75 65 85 88 90 89 80 68 71 73 74 73 72 73 72 70 67 66 65 62 60 60 59 58 57 56 55 54 54 52 47 42
285 249 245 259 236 269 273 104 103 114 88 68 101 84 74 47 43 62 85 95 93 91 91 88 73 74 73 73 74 74 73 73 71 67 66 65 64 61 59 56 56 55 54 53 51 50 47 43 38
243 254 228 230 235 227 358 67 111 120 128 97 97 99 87 52 65 83 88 82 83 86 94 99 75 76 75 74 75 76 75 72 69 66 65 64 62 62 59 56 53 53 53 52 50 48 44 41 36
257 242 232 226 218 201 160 345 142 99 104 95 89 105 98 92 82 87 83 78 80 84 92 100 76 77 76 73 71 74 75 72 69 66 64 62 61 59 57 55 52 51 50 48 48 44 40 38 33
285 269 252 243 218 213 164 33 74 133 120 51 26 102 115 100 85 92 87 81 83 80 81 88 90 84 74 69 67 69 71 70 68 65 62 59 57 55 54 50 49 48 46 45 45 42 37 35 33
313 288 245 249 237 215 85 52 18 27 94 41 14 101 125 133 103 94 94 88 90 86 82 82 82 82 86 81 69 67 67 66 63 61 58 59 60 55 51 47 44 44 43 43 41 39 37 32 29
308 247 250 291 284 99 86 59 33 22 86 75 46 61 99 126 120 109 90 71 72 80 87 88 82 82 82 86 78 72 72 69 67 55 52 58 63 64 51 44 41 39 39 38 37 36 34 29 21
359 307 343 355 8 64 61 55 110 130 102 105 83 85 111 120 130 130 121 109 89 77 72 76 72 71 78 79 86 80 71 81 77 59 40 39 44 51 59 48 44 39 36 31 27 25 20 18 9
25 46 31 24 31 48 47 18 319 180 174 167 134 129 135 143 148 153 146 136 119 99 68 57 59 60 65 68 75 53 55 42 53 59 32 31 46 49 62 62 51 39 34 26 16 13 7 8 8
68 43 30 19 17 20 7 340 317 317 2 37 112 139 149 160 163 167 160 151 140 124 101 61 61 52 55 69 69 66 58 41 30 34 29 38 36 31 33 40 33 30 19 15 14 9 7 10 10
83 70 45 52 38 19 350 295 286 286 34 101 128 152 166 170 172 169 149 146 140 140 131 100 70 67 44 52 64 65 61 57 39 14 23 39 35 24 24 23 22 22 21 13 9 9 7 8 8
101 103 80 29 12 333 303 281 259 248 155 157 167 184 182 183 179 166 154 153 145 142 138 133 126 101 80 59 58 63 52 56 54 36 18 30 37 21 16 19 20 17 10 6 9 4 1 2 12
133 125 127 226 239 243 312 283 236 212 172 201 204 200 196 187 181 178 171 165 157 154 137 147 163 127 101 87 62 63 56 57 51 42 22 11 20 16 21 23 22 9 5 12 14 11 11 7 11
198 186 167 94 65 255 278 266 222 177 193 220 219 208 201 185 187 190 170 163 156 151 147 147 148 141 121 103 74 57 44 54 52 45 30 15 12 16 27 24 14 10 13 17 10 10 5 356 353
186 225 252 211 17 302 257 263 268 218 224 226 221 216 204 184 193 191 167 159 158 157 155 143 122 131 136 129 122 96 67 57 52 46 38 17 11 14 21 18 12 16 22 14 359 1 2 350 348
313 292 290 281 332 301 266 262 253 210 233 246 228 216 204 196 203 177 160 147 145 148 147 146 135 130 130 136 135 124 105 77 59 44 22 24 12 3 26 21 13 18 24 8 5 358 359 340 331
354 340 298 307 339 310 269 272 262 218 218 241 246 227 214 209 190 163 157 141 141 147 154 163 147 136 133 123 136 159 169 126 75 48 17 23 15 359 16 19 10 16 21 358 356 359 356 341 343
16 12 312 316 359 309 290 278 259 222 216 219 234 240 224 206 183 168 156 149 161 165 164 161 158 166 180 141 147 204 166 170 160 81 0 18 21 0 354 22 2 7 8 356 8 358 335 329 352
11 8 338 318 313 259 289 284 217 207 205 201 234 250 236 214 199 177 172 173 172 178 184 181 174 175 165 151 127 109 90 108 55 8 354 343 346 358 340 13 0 356 11 322 321 301 308 294 312
327 20 332 304 317 294 289 295 270 186 186 221 241 251 258 233 214 192 188 180 189 190 172 176 181 168 165 172 161 167 185 209 231 217 275 342 25 25 1 27 346 307 292 281 294 315 302 258 276
302 305 278 278 288 290 264 263 274 149 251 248 241 243 241 247 235 205 191 184 182 168 163 168 166 188 187 179 174 167 178 188 180 160 265 318 354 19 2 28 32 357 306 274 278 295 292 269 261
284 284 263 252 253 277 248 253 279 239 282 292 113 136 120 265 207 181 150 141 155 153 163 169 173 192 208 191 170 168 176 183 181 202 258 285 298 7 355 10 29 3 332 309 282 274 277 275 271
340 347 3 358 334 260 269 258 260 319 26 64 73 64 82 98 81 80 111 144 158 165 173 175 174 195 196 191 180 175 180 187 197 206 226 263 286 331 325 336 335 349 334 316 308 298 286 287 283
317 349 56 306 288 301 290 246 258 94 74 67 59 55 49 57 65 58 81 149 180 173 171 173 177 190 187 193 185 177 182 189 206 211 218 235 242 251 301 290 320 343 346 328 326 309 295 299 294
334 23 354 326 301 286 262 256 276 116 111 78 82 56 20 359 18 13 31 247 184 178 175 179 173 187 200 193 172 180 183 191 207 204 211 231 238 253 291 258 249 288 311 324 321 297 301 296 288
315 326 326 72 331 297 287 264 260 276 294 304 79 58 319 14 19 287 312 284 224 180 170 166 170 190 194 174 177 187 190 192 195 184 227 222 232 246 284 254 232 261 281 287 278 285 286 281 286
181 229 266 264 242 255 291 281 327 275 258 286 282 161 82 9 316 257 208 183 180 154 155 166 175 174 180 182 177 181 183 182 184 199 228 234 230 241 255 231 227 245 263 262 264 278 288 283 292
310 275 197 187 266 245 267 274 306 37 22 37 313 313 345 4 354 359 351 165 180 185 175 175 182 189 196 177 169 180 178 186 203 213 223 228 240 253 251 223 220 251 265 268 263 272 281 280 288